Regional Weather Roundup
Issued by NWS

Home | Current Version | Previous Version | Text Only | Print | Product List | Glossary On
Versions: 1 2 3 4 5 6 7 8 9 10 11 12 13 14 15 16 17 18 19 20 21 22 23 24 25 26 27 28 29 30 31 32 33 34 35 36 37 38 39 40 41 42 43 44 45 46 47 48 49 50
000
ASUS42 KKEY 020310
RWRKEY

FLORIDA REGIONAL WEATHER ROUNDUP FOR THE FLORIDA KEYS
NATIONAL WEATHER SERVICE KEY WEST FLORIDA
1100 PM EDT FRI AUG 01 2014

...SOUTH FLORIDA AND THE KEYS...

CITY           SKY/WX    TMP DP  RH WIND       PRES   REMARKS
FORT MYERS     LGT RAIN  77  75  93 SE5       29.99S
SW REGIONAL AP RAIN      76  74  93 SE6       30.00R
NAPLES         CLOUDY    77  74  90 E6        29.99F
MIAMI          PTCLDY    82  72  71 NW3       30.00R
WEST KENDALL   PTCLDY    81  72  74 CALM      29.99R
HOMESTEAD      PTCLDY    81  74  79 N3        29.99R
MARATHON       MOCLDY    85  77  77 CALM      29.98R HX  95
BOCA CHICA NAS CLEAR     86  75  69 NE6       29.98R HX  95
KEY WEST INTL  CLEAR     86  75  69 NE5       29.99R HX  95

...INTERNATIONAL WEATHER...

CITY           SKY/WX    TMP DP  RH WIND       PRES   REMARKS
NASSAU BAHAMAS PTCLDY    82  77  83 CALM      29.98  HX  91
CANCUN MEXICO  PTCLDY    79  77  94 CALM      29.98R
COZUMEL MEXICO MOCLDY    77  75  94 E5        29.97R

ADJACENT COASTAL WATERS...

STATION/POSITION TIME  SKY/WX   TEMP    WIND        PRES    WAVE
                                AIR SEA DIR/SP/G            HT/PER
                 (UTC)          (F)     (DEG/KT/KT) (MB)    (FT/S)
PULASKI SHOAL LI 0300            85      80/  8/  9 1015.2R
SAND KEY         0300            85      40/  5/  8 1015.3R
SOMBRERO KEY     0300            86      80/  9/ 10 1015.9R
LONG KEY         0300            86 91   30/  9/ 11 1016.1R
MOLASSES REEF    0300            85 87   80/  6/  8 1015.3R
FOWEY ROCKS      0300            85 87   60/  7/  8 1015.9R
Buoy 42080       NOT AVBL

$$


USA.gov is the U.S. government's official web portal to all federal, state and local government web resources and services.